Regional Weather Roundup
Issued by NWS

Home | Current Version | Previous Version | Text Only | Print | Product List | Glossary Off
Versions: 1 2 3 4 5 6 7 8 9 10 11 12 13 14 15 16 17 18 19 20 21 22 23 24 25 26 27 28 29 30 31 32 33 34 35 36 37 38 39 40 41 42 43 44 45 46 47 48 49 50

000
ASUS45 KSLC 061810
RWRUT

UTAH REGIONAL WEATHER ROUNDUP
NATIONAL WEATHER SERVICE SALT LAKE CITY UT
1100 AM MST SAT FEB 06 2016

UTZ001>011-023>025-061900-

NORTHERN UTAH

CITY           SKY/WX    TMP DP  RH WIND       PRES   REMARKS
BRIGHAM CITY   SUNNY     21  19  91 CALM      30.56R
HILL AFB       SUNNY     28  11  48 E12       30.52R WCI  18
LOGAN          CLOUDY    25  22  88 CALM      30.53R
OGDEN          SUNNY     29  20  69 S8        30.53R WCI  21
PROVO AIRPORT  MOSUNNY   18  16  93 CALM      30.57R
SALT LAKE CITY MOSUNNY   30  20  66 S6        30.55R WCI  24
VERNAL         CLOUDY    11   6  81 VRB3      30.57S
WENDOVER       SUNNY     28  21  74 E7        30.54R WCI  21
HEBER CITY     MOSUNNY   19  18  93 E3        30.53S
WEST JORDAN    SUNNY     30  21  69 SE9       30.53S WCI  22

$$

UTZ012>022-026-027-061900-

SOUTHERN/CENTRAL UTAH

CITY           SKY/WX    TMP DP  RH WIND       PRES   REMARKS
BLANDING       SUNNY     28  17  66 CALM      30.57F
BRYCE CANYON   SUNNY     17   9  70 S3        30.48R
CEDAR CITY     SUNNY     21  16  81 N8        30.48S WCI  11
DELTA          PTSUNNY   11   8  91 CALM      30.56S
HANKSVILLE     CLOUDY    19  18  93 W5        30.66S WCI  13
MILFORD        FOG        5   5 100 S5        30.54R VSB 1/4 WCI  -4
MOAB/CYNLANDS  CLOUDY    20  15  81 CALM      30.61S
PRICE          MOSUNNY   18  12  77 SE5       30.53S WCI  11
ST GEORGE      PTCLDY    37  21  52 CALM      30.55S
KANAB          SUNNY     41  21  45 CALM      30.53S

$$

REGIONAL REPORTS     COLORADO/ARIZONA

CITY           SKY/WX    TMP DP  RH WIND       PRES   REMARKS
CRAIG, CO      CLOUDY    10   4  76 W3        30.51S
GRAND JUNCTION CLOUDY    13  11  92 NW8       30.60S WCI   2
RIFLE          SUNNY     13   5  70 CALM      30.58F
MONTROSE       CLOUDY    22  10  60 N5        30.57F WCI  16
CORTEZ         SUNNY     31  11  43 CALM      30.50F
PAGE, AZ       SUNNY     36  25  64 CALM      30.54F
GRAND CANYON   SUNNY     47   1  15 NE5       30.48R
KINGMAN        SUNNY     50  50 100 N12       30.43S
FLAGSTAFF      SUNNY     36   9  32 E7        30.46F WCI  30

$$

REGIONAL REPORTS    NEVADA/IDAHO/WYOMING

CITY           SKY/WX    TMP DP  RH WIND       PRES   REMARKS
LAS VEGAS, NV  MOSUNNY   50  24  36 VRB3      30.45R
ELY            SUNNY     18  11  74 S13       30.49S WCI   5
ELKO           MOSUNNY   16  10  77 W3        30.53F
POCATELLO, ID  CLOUDY    28  22  78 NW7       30.46R WCI  21
BURLEY         CLOUDY    38  26  62 SW9       30.44R WCI  31
EVANSTON, WY   CLOUDY    19  14  81 SW12      30.44R WCI   7
ROCK SPRINGS   CLOUDY    26  16  65 W26       30.39S WCI  10

$$



USA.gov is the U.S. government's official web portal to all federal, state and local government web resources and services.